Location: ??????
(41.3794°N, 22.5014°E)
Time: 21:25:55
(UTC+00:00)

Meteor 1-10 Rocket - Pass Details

Date: 30 November 2020
Orbit: 836 x 910 km, 81.3° (Epoch: 19 January)

Event Time Altitude Azimuth Distance (km) Brightness Sun altitude
Rises 16:38:37 0° 173° (S) 3,435 7.5 -17.8°
Reaches altitude 10° 16:41:06 10° 168° (SSE) 2,491 6.7 -18.2°
Maximum altitude 16:46:32 51° 94° (E) 1,061 4.3 -19.2°
Enters shadow 16:50:01 22° 28° (NNE) 1,786 5.5 -19.9°
